SCP
0 0 0 0 0 0 0 0 0 0 0 0 0 0 0 0 0 0 0 0 0 0 0 0 0 0 0 0 0 0 0 0 0 0 0 0 0 0 0 0 0 0 0 0
0 0 0 0 0 0 0 0 0 0 0 0 0 0 0 0 0 0 0 0 0 0 0 0 0 0 0 0 0 0 0 0 0 0 0 0 0 0 0 0 0 0 0 0
0 0 0 0 0 0 0 0 0 0 0 0 0 0 0 0 0 0 0 0 0 0 0 0 0 0 0 0 0 -0 0 0 0 0 0 0 0 0 0 0 0 0 0 0
0 0 0 0 0 0 0 0 0 0 0 0 0 0 0 0 0 0 0 0 0 0 0 0 0 0 0 0 0 -0 0 0 0 0 0 0 0 0 0 0 0 0 0 0
0 0 0 0 0 0 0 0 0 0 0 0 0 0 0 0 0 0 0 0 0 0 0 0 0 0 0 0 0 0 0 0 0 0 0 0 0 0 0 0 0 0 0 0
0 0 0 0 0 0 0 0 0 0 0 0 0 0 0 0 0 0 0 0 0 0 0 0 0 0 0 0 0 0 0 0 0 0 0 0 0 0 0 0 0 0 0 0
0 0 0 0 0 0 0 0 0 0 0 0 0 0 0 0 0 0 0 0 0 0 0 0 0 0 0 0 0 0 0 0 0 0 0 0 0 0 0 0 0 0 0 0
0 0 0 0 0 0 0 0 0 0 0 0 0 0 0 0 0 0 0 0 0 0 0 0 0 0 0 0 0 0 0 0 0 0 0 0 0 0 0 0 0 0 0 0
0 0 0 0 0 0 0 0 0 0 0 0 0 0 0 0 0 0 0 0 0 0 0 0 0 0 0 0 0 0 0 0 0 0 0 0 0 0 0 0 0 0 0 0
0 0 0 0 0 0 0 0 0 0 0 0 0 0 0 0 0 0 0 0 0 0 0 0 0 0 0 0 0 0 0 0 0 0 0 0 0 0 0 0 0 0 0 -0
0 0 0 0 0 0 0 0 0 0 0 0 0 0 0 0 0 0 0 0 0 0 0 0 0 0 0 0 0 0 0 0 0 0 0 0 0 0 0 0 0 0 0 -0
0 0 0 0 0 0 0 0 0 0 0 0 0 0 0 0 0 0 0 0 0 0 0 0 0 0 0 0 0 0 0 0 0 0 0 0 0 0 0 0 0 0 0 0
0 0 0 0 0 0 0 0 0 0 0 0 0 0 0 0 0 0 0 0 0 0 0 0 0 0 0 0 0 0 0 0 0 0 0 0 0 0 0 0 0 0 0 0
0 0 0 0 0 0 0 0 0 0 0 0 0 0 0 0 0 0 0 0 0 0 0 0 0 0 0 0 0 0 0 0 0 0 0 0 0 0 0 0 0 0 0 0
0 0 0 0 0 0 0 0 0 0 0 0 0 0 0 0 0 0 0 0 0 0 0 0 0 0 0 0 0 0 0 0 0 0 0 0 0 0 0 0 0 0 0 0
0 0 0 0 0 0 0 0 0 0 0 0 0 0 0 0 0 0 0 0 0 0 0 0 0 0 0 0 0 0 0 0 0 0 0 0 0 0 0 0 0 0 0 0
0 0 0 -0 0 0 0 0 0 0 0 0 0 0 0 0 0 0 0 0 0 0 0 0 0 0 0 0 0 0 0 0 0 0 0 0 0 0 0 0 0 0 0 0
0 0 0 0 0 0 0 0 0 0 0 0 0 0 0 0 0 0 0 0 0 0 0 0 0 0 0 0 0 0 0 0 0 0 0 0 0 0 0 0 0 0 0 0
0 0 0 0 0 0 0 0 0 0 0 0 0 0 0 0 0 0 0 0 0 0 0 0 0 0 0 0 0 0 0 0 0 0 0 0 0 0 0 0 0 0 0 0
0 0 0 0 0 0 0 0 0 0 0 0 0 0 0 0 0 0 0 0 0 0 0 0 0 0 0 0 0 0 0 0 0 0 0 0 0 0 0 0 0 0 0 0
0 0 0 0 0 0 0 0 0 0 0 0 0 0 0 0 0 0 0 0 0 0 0 0 0 0 0 0 0 0 0 0 0 0 0 0 0 0 0 0 0 0 0 0
0 0 0 0 0 0 0 0 0 0 0 0 0 0 0 0 0 0 0 0 0 0 0 0 0 0 0 0 0 0 0 0 0 0 0 0 0 0 0 0 0 0 0 0
0 0 0 0 0 0 0 0 0 0 0 0 0 0 0 0 0 0 0 0 0 0 0 0 0 0 0 0 0 0 0 0 0 0 0 0 0 0 0 0 0 0 0 0
0 0 0 0 0 0 0 0 0 0 -0 -0 0 0 0 0 0 0 0 0 0 0 0 0 0 0 0 0 0 0 0 0 0 0 0 0 0 0 0 0 0 0 0 0
0 0 0 0 0 0 0 0 0 0 0 0 0 0 0 0 0 0 0 0 0 0 0 0 0 0 0 0 0 0 0 0 0 0 0 0 0 0 0 0 0 0 0 0
0 0 0 0 0 0 0 0 0 0 0 0 0 0 0 0 0 0 0 0 0 0 0 0 0 0 0 0 0 0 0 0 0 0 0 0 0 0 0 0 0 0 0 0
Wind_Speed
3 4 9 12 12 5 4 4 5 5 2 3 8 12 12 8 5 7 7 6 7 8 7 4 4 4 4 4 5 6 5 5 5 4 3 3 3 2 1 1 2 2 2 3
2 10 11 5 6 6 5 5 6 4 2 3 6 11 9 8 7 7 8 7 8 6 4 3 3 4 5 6 6 6 6 6 6 5 4 3 3 2 2 1 1 2 2 3
11 5 4 6 7 9 10 10 8 5 3 2 5 9 5 5 4 4 5 6 6 6 6 5 4 4 5 5 6 6 6 6 6 6 4 3 2 1 1 1 1 2 3 3
9 7 4 6 8 9 11 8 6 5 2 4 1 7 7 4 5 5 5 5 5 5 5 5 4 4 5 6 5 5 5 6 6 6 6 6 4 3 3 2 2 2 3 3
7 5 6 8 9 9 5 2 5 5 4 4 3 5 9 2 5 6 5 5 5 5 5 5 5 6 5 4 4 4 4 5 5 6 7 7 4 3 2 2 2 2 2 3
6 3 5 7 4 6 4 2 1 2 3 8 9 7 9 5 7 4 4 4 4 4 4 4 4 3 3 3 3 4 4 4 5 6 7 7 7 5 4 3 3 2 1 2
4 4 3 2 2 3 4 4 1 2 4 9 5 7 11 5 4 5 5 4 3 3 3 3 3 3 3 3 3 4 4 4 4 5 6 6 7 7 7 5 5 4 2 2
3 5 4 3 5 6 8 8 7 6 6 4 3 9 8 3 3 3 3 2 2 2 2 3 4 4 4 4 4 4 5 4 4 5 5 5 5 5 4 5 4 5 4 3
4 6 2 2 2 6 6 7 5 3 1 3 6 5 7 1 2 2 2 2 3 3 2 3 3 3 3 4 4 5 5 4 4 5 5 4 5 4 4 4 4 3 3 3
3 4 4 2 0 2 4 5 4 5 5 6 5 6 6 3 3 2 2 3 3 2 2 2 2 2 3 3 4 4 4 5 5 5 5 4 4 4 4 3 4 4 4 3
2 3 3 1 4 5 3 4 4 4 4 5 5 7 5 6 5 4 4 3 3 2 2 2 1 1 2 2 3 3 3 4 4 4 4 4 4 3 3 3 4 4 4 4
2 3 3 6 4 3 5 6 6 5 5 5 4 8 3 4 3 1 2 2 2 2 2 1 1 0 1 1 2 3 3 4 4 4 4 4 4 3 3 4 4 4 4 4
2 2 1 4 2 1 2 3 4 3 3 5 6 8 2 2 2 1 1 2 2 2 2 1 1 1 0 1 2 2 3 4 4 4 4 3 3 4 4 4 3 4 4 4
1 3 6 8 5 3 4 5 4 4 5 6 9 9 6 5 4 4 2 2 2 1 1 1 1 1 1 1 2 2 2 3 3 3 4 4 4 5 4 4 4 4 4 4
2 3 5 7 7 5 7 8 8 9 9 9 9 10 10 6 6 4 3 2 2 2 2 1 1 2 2 1 1 2 2 2 3 3 4 4 4 4 4 4 4 4 4 4
1 3 2 5 5 5 8 9 9 10 9 9 9 12 6 5 3 3 3 3 3 3 2 2 1 2 2 2 2 1 2 2 3 4 4 3 3 3 3 4 4 4 4 3
2 3 2 5 4 4 7 7 7 6 5 6 11 10 4 4 4 4 3 3 3 3 3 2 2 2 2 2 2 2 2 1 2 3 3 3 3 3 3 3 3 4 4 3
5 4 3 3 1 8 6 1 3 6 6 4 5 4 4 5 5 3 2 2 2 2 2 2 2 2 2 2 1 1 1 2 2 2 2 2 3 3 3 3 4 4 3 3
7 6 3 3 5 7 5 3 2 3 5 2 4 5 4 4 3 3 1 1 2 2 2 2 2 2 1 1 0 1 1 2 2 1 1 2 2 3 3 3 3 2 2 2
1 4 3 3 4 5 4 5 6 1 3 5 4 5 4 2 2 4 3 3 3 2 2 2 1 1 1 1 1 2 1 2 1 1 2 1 2 3 3 4 3 1 2 2
1 1 4 4 5 5 5 7 3 2 4 7 6 5 3 2 4 3 3 3 3 3 2 1 1 1 1 0 1 2 1 1 1 1 0 1 1 2 2 2 1 2 2 2
2 2 3 2 3 6 4 3 1 3 5 5 5 5 3 3 4 4 4 3 3 3 3 2 2 2 2 1 1 1 0 1 1 1 1 1 1 0 1 2 1 2 2 2
1 2 3 3 3 3 2 2 4 4 5 5 5 5 3 3 4 4 5 4 4 4 3 2 2 3 3 2 1 1 1 1 2 2 1 1 1 1 1 1 1 1 1 2
3 3 1 2 3 4 4 5 6 5 5 6 5 5 4 3 3 4 4 4 5 5 4 4 4 4 4 4 3 2 2 2 2 2 1 1 2 2 2 1 0 1 1 1
3 3 3 4 4 4 5 6 6 6 6 6 6 5 4 3 4 4 4 4 4 4 4 4 4 4 4 4 4 3 3 2 3 2 2 2 2 2 2 2 1 1 1 2
3 3 3 4 5 3 5 6 6 5 6 5 5 6 6 4 4 4 4 4 4 4 4 5 5 5 4 4 5 5 4 3 3 2 2 2 1 2 1 2 3 4 2 3
Wind_Direction
167 175 212 210 206 206 171 198 235 241 232 219 243 258 268 271 250 252 254 245 241 244 245 220 204 192 181 179 181 187 183 182 172 159 160 160 176 173 167 171 166 163 155 158
176 229 226 193 192 208 214 236 251 271 240 235 270 271 266 257 242 235 239 238 238 246 245 225 205 190 189 192 193 190 188 184 181 174 169 161 164 171 177 180 165 164 164 168
211 233 189 184 194 208 223 223 229 241 310 300 303 291 259 257 245 246 243 240 237 228 226 219 206 202 196 197 196 194 191 186 179 167 149 131 117 108 141 166 174 184 175 173
232 236 206 205 211 197 235 221 211 218 244 274 233 287 276 254 271 259 254 249 243 237 226 216 205 205 205 205 192 186 185 181 175 167 164 163 167 180 190 178 179 182 177 173
233 208 206 220 221 195 218 169 190 207 215 264 228 245 277 258 259 257 253 251 246 240 224 216 213 210 206 196 184 180 176 176 173 172 175 174 181 177 165 154 162 172 180 178
248 236 214 222 222 192 162 107 126 164 185 247 223 209 270 223 225 246 246 258 254 245 228 221 221 202 195 180 172 170 169 176 173 173 177 181 182 172 163 173 179 184 183 182
272 255 232 195 177 177 157 140 195 234 219 240 189 202 250 235 222 219 231 258 270 254 230 222 214 202 198 184 180 174 169 174 175 177 182 188 185 180 184 188 188 184 182 191
237 266 224 199 199 191 197 180 186 208 220 262 187 221 248 238 234 234 235 249 282 274 237 226 219 207 204 194 184 178 180 185 181 182 188 187 183 184 189 191 188 192 193 196
208 255 292 247 211 168 178 204 191 160 191 241 240 260 289 251 296 271 254 266 272 275 259 239 231 212 202 196 195 190 186 189 189 188 185 186 184 186 191 188 186 190 192 186
188 256 281 282 113 217 188 163 155 180 195 234 255 242 235 236 243 256 249 253 273 284 283 271 236 217 204 198 193 187 187 191 191 187 186 187 190 192 189 179 186 189 187 181
187 208 286 285 205 199 171 189 187 183 194 193 236 254 222 212 212 217 233 239 250 286 283 273 263 242 206 176 176 183 191 191 190 189 188 182 184 182 176 184 195 193 188 184
206 175 242 247 248 228 196 193 180 192 217 205 216 260 265 228 240 222 258 278 286 299 299 290 285 284 148 172 184 192 199 200 201 194 187 185 180 175 183 196 198 189 190 191
188 173 272 319 322 12 217 211 203 197 178 193 207 254 296 333 320 285 247 271 288 309 323 348 359 347 264 217 202 201 204 204 201 186 180 181 180 181 194 203 196 189 187 187
251 203 206 223 240 218 254 255 227 190 210 227 227 246 276 294 286 282 272 264 259 267 282 322 344 321 295 253 221 212 220 211 194 180 180 189 196 197 199 199 194 191 185 183
138 236 243 260 270 254 253 253 237 222 218 224 241 242 256 264 258 253 253 262 280 282 286 305 310 304 295 275 245 222 222 213 193 182 189 205 204 198 193 193 193 192 188 190
176 241 256 269 266 263 267 257 242 238 237 241 257 263 268 277 265 254 251 246 257 277 284 306 312 306 292 276 254 234 221 203 179 184 195 197 193 192 190 193 188 187 190 187
211 204 235 267 292 312 262 243 233 231 225 221 243 257 280 285 267 254 248 253 262 271 275 281 286 279 269 257 241 231 221 181 167 178 185 179 181 189 195 193 188 192 193 183
197 199 218 260 284 243 251 242 235 246 249 247 267 284 278 269 276 275 246 233 272 278 283 294 295 295 291 272 259 218 149 145 155 163 174 181 180 189 189 185 195 200 196 191
202 191 206 219 246 265 294 314 287 249 269 308 285 298 320 326 343 324 321 300 273 278 280 278 280 289 291 291 277 117 116 123 127 146 181 190 181 183 181 188 197 198 189 196
187 179 194 218 233 249 284 314 308 209 277 353 333 314 321 357 308 282 318 329 324 327 324 320 329 357 14 352 117 115 121 129 163 202 219 206 186 186 189 195 193 184 182 197
67 189 212 225 241 268 312 323 3 126 290 327 320 314 312 263 264 297 334 339 341 342 339 349 11 16 360 354 126 129 141 203 233 214 162 159 181 192 189 182 176 161 163 162
212 211 214 195 224 262 334 16 45 290 314 328 329 327 322 327 339 354 359 4 15 11 6 19 44 24 15 35 112 113 193 303 17 58 82 98 108 145 129 127 133 153 153 156
275 252 244 217 231 313 343 336 326 328 328 332 334 337 351 355 352 357 358 8 20 23 16 20 48 39 27 26 70 94 340 38 61 61 55 57 66 69 104 127 142 138 150 163
317 329 314 292 300 320 340 348 348 346 341 342 348 353 4 360 1 4 6 11 16 18 16 24 42 39 25 22 26 27 19 47 76 74 53 51 67 54 48 54 116 150 171 179
304 311 308 285 305 327 346 348 345 349 356 360 2 5 3 12 13 13 12 14 18 17 15 29 41 37 22 21 22 18 24 52 64 56 51 48 52 57 42 28 19 325 248 212
311 285 269 271 296 296 309 335 346 355 355 356 5 9 9 14 13 18 16 15 24 27 30 36 41 40 30 30 26 17 22 46 65 52 42 43 46 46 48 42 21 12 351 329